[Iaude] MPEC W129: 2016 HC3 [a=2.25,e=0.60,i=8.8,H=20.02]
    mpec at marsden.cfa.harvard.edu 
    mpec at marsden.cfa.harvard.edu
       
    Sun Nov 26 09:12:46 EST 2023
    
    
  
M.P.E.C. 2023-W129                            Issued 2023 November 26, 14:11 UT
     The Minor Planet Electronic Circulars contain information on unusual
         minor planets, routine data on comets and natural satellites,
         and occasional editorial announcements.  They are published
    on behalf of Division F of the International Astronomical Union by the
          Minor Planet Center, Smithsonian Astrophysical Observatory,
                          Cambridge, MA 02138, U.S.A.
			  
             Prepared using the Tamkin Foundation Computer Network
                              MPC at CFA.HARVARD.EDU
            URL https://www.minorplanetcenter.net/    ISSN 1523-6714
                                    2016 HC3                                    
                           Revision to MPEC 2016-H55                            
Additional Observations:
     K16H03C 0C2023 11 11.56202506 08 48.439+32 50 33.77         23.40GVEW129T12
     K16H03C 0C2023 11 11.56943106 08 47.875+32 50 33.84         23.79GVEW129T12
     K16H03C 0C2023 11 11.57681806 08 47.318+32 50 33.89         23.35GVEW129T12
     K16H03C 0C2023 11 11.58440206 08 46.747+32 50 33.93         23.56GVEW129T12
     K16H03C 0C2023 11 12.54355606 07 35.894+32 50 41.13         23.59GVEW129T12
Observer details:
T12 University of Hawaii 88-inch telescope, Maunakea.  Observer D. J. Tholen.
    2.24-m f/10.1 reflector + 2112 x 2112 pixels STA1600 10k CCD.
First and last observations above in comparison with prediction:
Residuals in seconds of arc, reference and Delta-T
231111 T12 43.0- 12.9-    231112 T12 43.5- 12.8-    E2023-Q57   -0.04 days
Orbital elements:
2016 HC3                                                 Earth MOID = 0.0676 AU
Epoch 2023 Sept. 13.0 TT = JDT 2460200.5                Veres                   
M  35.82088              (2000.0)            P               Q                  
n   0.29174862     Peri.   13.88528     +0.62770291     +0.76602933             
a   2.2514562      Node   295.18419     -0.72803293     +0.51467864             
e   0.5950910      Incl.    8.80497     -0.27560319     +0.38510383             
P   3.38           H   20.02          G   0.15           U   0                  
Residuals in seconds of arc
160425 F51  0.0   0.1+    160609 807  0.1+  0.0     161007 H45  0.2+  0.1-
160425 F51  0.2+  0.2-    160609 807  0.0   0.2+    161007 H45  0.1+  0.0
160425 F51  0.3-  0.1+    160609 807  0.2+  0.2+    161007 H45  0.0   0.1+
160426 926  0.5+  0.3-    160616 807  0.1+  0.5+    161007 705  0.0   0.1-
160426 926  0.0   0.2-    160616 807  0.2+  0.4+    161007 705  0.1-  0.1+
160426 926  0.4+  0.5+    160616 807  0.3-  0.3+    161007 705  0.1+  0.2-
160427 807 (0.6+  0.5-)   160617 807  0.4-  0.1-    161007 T05  0.5-  0.6+
160427 807  0.5+  0.5-    160618 807  0.4-  0.3-    161007 T05  0.3+  0.6+
160427 926  0.1-  0.1+    160618 807  0.1-  0.3-    161007 T05 (1.3-  0.1+)
160427 926  0.2-  0.2-    160622 807  0.2-  0.2-    161007 T05 (0.9-  1.0+)
160427 926  0.4-  0.0     160622 807  0.1-  0.0     161008 H45  0.5+  0.3-
160427 691 (1.2+  0.6-)   160622 807  0.1-  0.1+    161008 H45  0.2+  0.0
160427 691 (0.9+  0.6-)   160627 807  0.2+  0.1-    161008 H45  0.0   0.4-
160427 691  0.7+  0.1-    160627 807  0.4+  0.1-    161008 H45  0.0   0.2+
160428 926  0.3+  0.1+    160627 807  0.1-  0.4+    161008 H45  0.0   0.5-
160428 926  0.0   0.4+    160705 807  0.1-  0.2+    161008 H45  0.1+  0.2-
160428 926  0.1-  0.1+    160705 807  0.2-  0.0     161012 G96  0.6-  0.0
160428 691  0.8-  0.2+    160705 807  0.4-  0.1+    161012 G96  0.3+  0.0
160428 691  0.9+  0.1-    160705 807  0.0   0.2+    161012 G96  0.3-  0.1-
160430 807  0.1-  0.0     160705 807  0.0   0.0     161013 F51  0.1+  0.1+
160430 807  0.0   0.1+    160720 807  0.3+  0.0     161013 F51  0.0   0.1+
160430 807  0.0   0.2+    160720 807  0.7+  0.2-    161013 F51  0.1+  0.1+
160501 807  0.1-  0.1+    160720 807  0.1-  0.6-    161013 F51  0.0   0.0
160501 807  0.1-  0.2+    160911 H45  0.4+  0.9-    161019 H21  0.1-  0.4-
160501 807  0.2-  0.1+    160911 H45  0.7+  0.9+    161019 H21  0.2-  0.2+
160502 691  0.0   0.4-    160911 H45  0.3+  0.6-    161019 H21  0.4+  0.4+
160502 691  0.1+  0.8-    160911 H45  0.0   0.3-    161022 703  0.8-  1.7-
160502 691  0.5+  0.1-    160911 H45  0.0   0.1-    161022 H45  0.2-  0.2+
160503 691 (1.2-  0.2+)   160911 H45  0.1-  0.5+    161022 H45  0.1-  0.1+
160503 691  0.5-  0.4+    160911 H45  0.6+  0.5-    161022 703  0.1-  0.1-
160503 691  0.7-  0.3+    160911 H45  0.0   0.2+    161022 H45  0.2-  0.7-
160504 291  0.2-  0.0     160911 C51 (1.2-  0.7-)   161022 H45  0.0   0.0
160504 291  0.1-  0.1+    160911 C51  0.5+  0.2+    161022 H45  0.1+  0.2+
160504 691  0.5-  0.2-    160911 C51  0.1-  0.0     161022 H45  0.0   0.2+
160504 291  0.2-  0.0     160911 C51  0.2-  0.2-    161022 703  0.6+  0.6+
160504 691  0.3+  0.0     160911 C51  0.2-  0.1+    161024 F51  0.0   0.1+
160504 691  0.1+  0.1+    160911 C51  0.1-  0.1-    161024 G96  0.3-  0.1+
160508 474  0.6+  0.3-    160919 H21  0.1-  0.0     161024 G96  0.3+  0.2+
160508 474  0.1+  0.6-    160919 H21  0.1-  0.0     161024 G96  0.0   0.1+
160508 474  0.2+  0.6-    160919 H21  0.0   0.0     161024 G96  0.1+  0.1+
160511 691  0.5-  0.3-    160924 H45  0.2+  0.5-    161024 F51  0.4+  0.1-
160511 691  0.4+  0.8-    160924 H45  0.2+  0.3-    161024 F51  0.1+  0.1-
160511 691  0.5-  0.3+    160924 H45  0.2+  0.1+    161025 H45  0.1+  0.0
160513 691  0.4-  0.1+    160924 H45  0.2+  0.1+    161025 H45  0.2+  0.4-
160513 691  0.1-  0.9-    160924 H45  0.2+  0.1-    161025 H45  0.2+  0.6-
160513 691  0.0   0.1+    160924 H45  0.2+  0.3-    161025 H45  0.1+  0.2-
160514 291  0.1+  0.0     160927 204  0.2+  0.1+    161025 H45  0.1-  0.1-
160514 291  0.1-  0.4+    160927 204  0.2-  0.1+    161025 H45  0.2-  0.1-
160514 291  0.0   0.1+    160927 204  0.2+  0.1+    161030 703  1.1-  0.5-
160516 691  0.1-  0.1+    160929 H45  0.1+  0.3-    161030 703  0.8+  0.2-
160516 691  0.4+  0.7-    160929 H45  0.2+  0.3-    161030 703  0.6+  0.4-
160516 691  0.1-  0.1-    160929 H45  0.3+  0.4-    161119 G96  0.1+  0.2+
160517 568  0.1-  0.1+    160929 H45  0.3+  0.3-    161119 G96  0.3-  0.1+
160517 568  0.1-  0.1+    160929 H45  0.4+  0.3+    161119 G96  0.2-  0.1+
160522 695  0.1-  0.6+    160929 H45  0.5+  0.0     161119 G96  0.2-  0.2+
160522 695  0.1+  0.1+    161003 H45  0.0   0.0     231111 T12  0.0   0.0
160530 691  0.1-  0.7+    161003 H45  0.1-  0.1+    231111 T12  0.0   0.0
160530 691  0.4-  0.3-    161003 H45  0.1+  0.1-    231111 T12  0.0   0.0
160530 691  0.0   0.4+    161003 H45  0.1+  0.0     231111 T12  0.0   0.1-
160608 807  0.2+  0.1-    161007 H45  0.1-  0.0     231112 T12  0.0   0.0
160608 807  0.1+  0.1+    161007 H45  0.0   0.1-
160608 807  0.1+  0.3+    161007 H45  0.2+  0.2-
Ephemeris:
2016 HC3                 a,e,i = 2.25, 0.60, 9                   q = 0.9116
Date    TT    R. A. (2000) Decl.     Delta      r    Elong.  Phase     V
2023 10 27    06 22 11.1 +32 37 24   1.4160  2.0756   117.8    25.1    23.5
...
2023 11 11    06 09 29.0 +32 50 25   1.3662  2.1833   135.2    18.6    23.3
...
2023 11 19    05 58 43.3 +32 48 12   1.3549  2.2388   145.2    14.6    23.2
...
2023 11 25    05 49 17.8 +32 39 54   1.3561  2.2796   152.9    11.4    23.2
2023 11 26    05 47 38.7 +32 37 53   1.3572  2.2864   154.2    10.8    23.2
2023 11 27    05 45 58.4 +32 35 41   1.3585  2.2931   155.4    10.3    23.1
...
2023 12 03    05 35 40.6 +32 18 28   1.3724  2.3329   162.9     7.1    23.1
...
2023 12 11    05 21 49.8 +31 45 15   1.4075  2.3848   170.7     3.8    23.0
...
2023 12 26    04 58 52.7 +30 20 11   1.5261  2.4787   161.5     7.2    23.4
A. U. Tomatic                (C) Copyright 2023 MPC           M.P.E.C. 2023-W129
    
    
More information about the Iaude
mailing list